AUA136 LSZH-LOWW

Flight info

Callsign AUA136
Flight time N/A
Altitude 31000
Route DEGES Z2 XEBIX N871 BADVI L725 INPUL DCT NEMAL NEMAL2W
Aircraft A320/M-SDE3FGHIRWY/LB1

Departure

Time 2026-05-06 19:46
Airport Zürich Airport (LSZH)

Arrival

Time N/A
Airport Vienna International Airport (LOWW)
Time Latitude Longitude Altitude Speed Heading
2026-05-06 19:19 47.45432 8.55634 1407 ft 0 kts 186°
2026-05-06 19:37 47.45446 8.55636 1407 ft 2 kts 186°
2026-05-06 19:37 47.45463 8.55639 1414 ft 2 kts 186°
2026-05-06 19:37 47.45480 8.55642 1407 ft 2 kts 186°
2026-05-06 19:37 47.45496 8.55644 1407 ft 2 kts 191°
2026-05-06 19:38 47.45512 8.55641 1409 ft 2 kts 124°
2026-05-06 19:38 47.45518 8.55623 1407 ft 0 kts 94°
2026-05-06 19:41 47.45518 8.55624 1407 ft 1 kts 94°
2026-05-06 19:41 47.45513 8.55700 1407 ft 9 kts 97°
2026-05-06 19:42 47.45505 8.55793 1410 ft 12 kts 96°
2026-05-06 19:42 47.45497 8.55907 1407 ft 10 kts 96°
2026-05-06 19:42 47.45489 8.56013 1409 ft 14 kts 96°
2026-05-06 19:42 47.45478 8.56184 1407 ft 13 kts 91°
2026-05-06 19:43 47.45511 8.56275 1413 ft 8 kts 51°
2026-05-06 19:43 47.45561 8.56365 1415 ft 14 kts 50°
2026-05-06 19:43 47.45596 8.56474 1414 ft 14 kts 96°
2026-05-06 19:43 47.45583 8.56639 1417 ft 18 kts 95°
2026-05-06 19:44 47.45569 8.56829 1420 ft 18 kts 96°
2026-05-06 19:44 47.45561 8.56964 1421 ft 9 kts 79°
2026-05-06 19:44 47.45587 8.57010 1423 ft 2 kts 31°
2026-05-06 19:44 47.45600 8.57018 1424 ft 7 kts 23°
2026-05-06 19:45 47.45662 8.56993 1424 ft 10 kts 294°
2026-05-06 19:45 47.45673 8.56860 1422 ft 21 kts 276°
2026-05-06 19:45 47.45707 8.56393 1423 ft 80 kts 276°
2026-05-06 19:45 47.45787 8.55257 1397 ft 142 kts 276°
2026-05-06 19:46 47.45910 8.53626 1713 ft 164 kts 275°
2026-05-06 19:46 47.46037 8.51950 2511 ft 163 kts 275°
2026-05-06 19:46 47.46150 8.50335 3171 ft 163 kts 274°
2026-05-06 19:46 47.46243 8.48532 3440 ft 184 kts 265°
2026-05-06 19:47 47.45756 8.46695 3721 ft 203 kts 237°
2026-05-06 19:47 47.44981 8.44940 4509 ft 204 kts 241°
2026-05-06 19:47 47.44273 8.43108 5250 ft 206 kts 243°
2026-05-06 19:47 47.43599 8.41224 6051 ft 208 kts 243°
2026-05-06 19:48 47.42943 8.39341 6817 ft 209 kts 243°
2026-05-06 19:48 47.42024 8.37678 7523 ft 214 kts 217°
2026-05-06 19:48 47.40607 8.36924 8226 ft 224 kts 186°
2026-05-06 19:48 47.39054 8.37455 8917 ft 239 kts 153°
2026-05-06 19:49 47.37916 8.39313 9574 ft 255 kts 116°
2026-05-06 19:49 47.37669 8.41944 9883 ft 266 kts 79°
2026-05-06 19:49 47.38505 8.44372 10396 ft 269 kts 49°
2026-05-06 19:49 47.39686 8.46493 11098 ft 270 kts 49°
2026-05-06 19:50 47.40888 8.48640 11793 ft 272 kts 50°
2026-05-06 19:50 47.42154 8.50742 12470 ft 274 kts 39°
2026-05-06 19:50 47.42966 8.51696 12830 ft 274 kts 33°
2026-05-06 19:50 47.43542 8.52284 13090 ft 274 kts 31°
2026-05-06 19:51 47.45116 8.53927 13747 ft 278 kts 43°
2026-05-06 19:51 47.46224 8.56288 14099 ft 290 kts 73°
2026-05-06 19:51 47.46614 8.59269 14274 ft 309 kts 89°
2026-05-06 19:51 47.46629 8.62643 14407 ft 331 kts 95°
2026-05-06 19:52 47.46521 8.66086 14531 ft 352 kts 95°
2026-05-06 19:52 47.46423 8.69807 14661 ft 373 kts 93°
2026-05-06 19:52 47.46405 8.73710 14998 ft 384 kts 91°
2026-05-06 19:52 47.46475 8.77688 15585 ft 389 kts 90°
2026-05-06 19:53 47.46527 8.81698 16161 ft 391 kts 95°
2026-05-06 19:53 47.46198 8.85683 16765 ft 392 kts 103°
2026-05-06 19:53 47.45657 8.89610 17379 ft 394 kts 104°